Regional Weather Roundup
Issued by NWS

Home | Current Version | Previous Version | Graphics & Text | Print | Product List | Glossary Off
Versions: 1 2 3 4 5 6 7 8 9 10 11 12 13 14 15 16 17 18 19 20 21 22 23 24 25 26 27 28 29 30 31 32 33 34 35 36 37 38 39 40 41 42 43 44 45 46 47 48 49 50

000
ASUS43 KMKX 300100
RWRWI

WISCONSIN REGIONAL WEATHER ROUNDUP
NATIONAL WEATHER SERVICE MILWAUKEE/SULLIVAN WI
800 PM CDT MON JUN 29 2015

NOTE: "FAIR" INDICATES FEW OR NO CLOUDS BELOW 12,000 FEET WITH NO
SIGNIFICANT WEATHER AND/OR OBSTRUCTIONS TO VISIBILITY.

WIZ001-002-006>008-014>016-023>028-300200-
NORTHWEST WISCONSIN

CITY           SKY/WX    TMP DP  RH WIND       PRES   REMARKS
SUPERIOR ARPT  CLEAR     71  66  84 CALM      29.77R
ASHLAND        MOCLDY    69  63  81 E6        29.78R
HAYWARD        PTCLDY    69  60  73 CALM      29.80R
SIREN          PTCLDY    66  62  86 CALM      29.80R
CUMBERLAND     MOCLDY    64  59  82 W3        29.81R
RICE LAKE      MOCLDY    65  59  82 CALM      29.81S
CHETEK         MOCLDY    64  61  91 CALM      29.80S
LADYSMITH      MOCLDY    65  59  83 W6        29.81R
EAU CLAIRE     NOT AVBL
MENOMONIE      CLOUDY    61  61 100 E3        29.79F
NEW RICHMOND   CLOUDY    60  59  97 SW7       29.80F
OSCEOLA        CLOUDY    64  63  97 W3        29.83R
$$

WIZ003>005-009-010-017-018-300200-
NORTH CENTRAL WISCONSIN

CITY           SKY/WX    TMP DP  RH WIND       PRES   REMARKS
MANITOWISH WTR MOCLDY    65  63  93 W5        29.79R
ARBOR VITAE    MOCLDY    64  61  88 W3        29.79S
WOODRUFF       MOCLDY    64  61  88 W3        29.79S
RHINELANDER    CLOUDY    65  59  81 CALM      29.81R
EAGLE RIVER    CLOUDY    64  57  77 CALM      29.79S
LAND O LAKES   CLOUDY    64  62  93 CALM      29.80R
PHILLIPS       PTCLDY    63  60  90 CALM      29.80R
TOMAHAWK       CLOUDY    62  59  91 CALM      29.80R
MEDFORD        CLOUDY    60  58  94 CALM      29.79S
MERRILL        CLOUDY    62  59  91 CALM      29.80S
$$

WIZ029-030-035-036-043>047-300200-
CENTRAL WISCONSIN

CITY           SKY/WX    TMP DP  RH WIND       PRES   REMARKS
WAUSAU         CLOUDY    63  59  87 CALM      29.77F
MOSINEE        NOT AVBL
MARSHFIELD     CLOUDY    63  57  81 CALM      29.78S
STEVENS POINT  CLOUDY    61  58  91 CALM      29.79F
WAUPACA        LGT RAIN  66  65  96 CALM      29.77F
WAUTOMA        NOT AVBL
WISC RAPIDS    CLOUDY    63  58  83 NE3       29.78F
CAMP DOUGLAS   NOT AVBL
$$

WIZ011>013-019>022-031-037>040-048>050-300200-
NORTHEAST WISCONSIN

CITY           SKY/WX    TMP DP  RH WIND       PRES   REMARKS
ANTIGO         CLOUDY    61  59  92 W8        29.80S
SHAWANO        TSTM      66  63  88 W5        29.76F
OCONTO         CLOUDY    67  64  92 CALM      29.75F
STURGEON BAY   CLOUDY    66  57  72 SE6       29.79F
GREEN BAY      CLOUDY    69  66  90 CALM      29.76S
MANITOWOC      NOT AVBL
APPLETON       MOCLDY    70  61  73 CALM      29.76F
CLINTONVILLE   CLOUDY   N/A N/A N/A CALM      29.77R
OSHKOSH        HVY RAIN  65  59  81 SW5       29.76F
$$

WIZ032>034-041-042-053>061-300200-
SOUTHWEST WISCONSIN

CITY           SKY/WX    TMP DP  RH WIND       PRES   REMARKS
LA CROSSE      CLOUDY    65  62  90 S3        29.79F
SPARTA         LGT RAIN  62  59  92 CALM      29.78F
VIROQUA        CLOUDY    63  62  96 N6        29.87R
BOSCOBEL       LGT RAIN  70  63  78 N14G22    29.83R
PRAIRIE DU CHI CLOUDY    60  58  95 CALM      29.80R
PLATTEVILLE    MOCLDY    74  63  66 CALM      29.80S
$$

WIZ056-057-062-063-064-067-068-300200-
SOUTH CENTRAL WISCONSIN

CITY           SKY/WX    TMP DP  RH WIND       PRES   REMARKS
REEDSBURG      CLOUDY    63  58  84 CALM      29.80F
BARABOO/DELLS  LGT RAIN  62  58  88 CALM      29.81F
LONE ROCK      TSTM      65  60  84 N10G20    29.82R
MINERAL POINT  MOCLDY    73  63  68 CALM      29.80F
MADISON        MOCLDY    71  65  81 NW9       29.78S
MIDDLETON      PTCLDY    75  61  61 NW3       29.79S
WATERTOWN      MOCLDY    70  68  93 CALM      29.78S
MONROE         PTCLDY    73  64  73 SW3       29.80R
JANESVILLE     PTCLDY    72  61  68 CALM      29.78S
$$

WIZ051-052-058>065-066-070>072-300200-
SOUTHEAST WISCONSIN

CITY           SKY/WX    TMP DP  RH WIND       PRES   REMARKS
MILWAUKEE      PTCLDY    67  60  78 SE7       29.79S
WAUKESHA       PTCLDY    66  61  82 SW6       29.80F
MILWAUKEE/TIMM NOT AVBL
RACINE         CLEAR     67  60  78 S7        29.81S
BURLINGTON     PTCLDY    67  62  84 CALM      29.79S
KENOSHA        CLEAR     69  61  75 S6        29.80R
FOND DU LAC    CLOUDY    69  65  86 W9        29.78S
SHEBOYGAN      MOCLDY    67  59  75 S8        29.78F
WEST BEND      MOCLDY    64  59  82 E3        29.79S
JUNEAU         TSTM      69  64  84 NW8       29.81R
$$

LSZ147-162-300200-
LAKE SUPERIOR

STATION/POSITION TIME  TEMP    WIND        PRES    WAVE
                       AIR SEA DIR/SP/G            HT/PER
                 (UTC) (F)     (DEG/KT/KT) (MB)    (FT/S)
W MID LAKE BUOY  2350   51 39  320/  6/  8 1007.9R   0
DEVILS ISLAND    0000   59     300/  7/  8 1008.4R
SAXON HARBOR     0000   71        CALM     1007.8S
$$

LMZ867-665-643>646-300200-
LAKE MICHIGAN

STATION/POSITION TIME  TEMP    WIND        PRES    WAVE
                       AIR SEA DIR/SP/G            HT/PER
                 (UTC) (F)     (DEG/KT/KT) (MB)    (FT/S)
CHAMBERS ISLAND  0000   69     190/  7/ 13 1007.8R
S GREEN BAY BUOY 0030   71 71  200/ 14/ 14 1009.0R
N MID LAKE BUOY  2350   56 52  180/  6/  8 1008.1R   1
NORTHPORT PIER   0000   69     160/  4/  9 1007.5S
ALGOMA LAKESHORE 2355          210/ 11/ 13   N/A
KEWAUNEE LAKESHO 0000   62     180/ 11/ 12 1007.9R
SHEBOYGAN LAKESH 0000   63     190/ 11/ 11 1009.0R
PORT WASHINGTON  0040   65     180/  4/  6 1009.5S
ATWATER BUOY     0000   63 61  150/ 10/ 12 1010.1F
MILWAUKEE LAKESH 0000   62     130/ 11/ 12   N/A
KENOSHA   LAKESH 0000   66     140/  5/  6 1008.8S
$$

TC  - TEMPERATURE IN CELSIUS
VSB - VISIBILITY IN STATUTE MILES
WCI - WIND CHILL INDEX
HX  - HEAT INDEX



USA.gov is the U.S. government's official web portal to all federal, state and local government web resources and services.